Flag for India Weather past 2 weeks in Kathua, Jammu and Kashmir, India

Now
90 °F

Fog.


Feels Like: 105 °F
Forecast: 79 / 93 °F
Wind: 6 mph from Southeast

Location: Amritsar Airport

Current Time: Aug 3, 2015 at 12:47:03 PM

Latest Report: Aug 3, 2015 at 12:00 PM


Visibility: 3 mi

Pressure: 29.65 "Hg

Humidity: 71%

Dew point: 79 °F

Location of KathuaLocation

Historic Weather in Kathua — Graph

°F

Kathua temperature yesterday

Maximum temperature yesterday: 88 °F (at 2:00 PM)
Minimum temperature yesterday: 79 °F (at 1:00 AM)
Average temperature yesterday: 82 °F

Past Weeks' High & Low Weather Summary

 TemperatureHumidityPressure
High95 °F (Jul 23, 3:30 PM)100% (Jul 20, 3:00 AM)29.71 "Hg (Jul 20, 3:00 AM)
Low75 °F (Jul 26, 6:00 AM)59% (Jul 29, 5:30 PM)29.45 "Hg (Jul 19, 4:00 PM)
Average85 °F86%29.57 "Hg
* Reported Jul 19 11:30 AM — Aug 3 11:30 AM, Kathua, Weather by CustomWeather, © 2015

Note: Actual official high and low records may vary slightly from our data, if they occured in-between our weather recording intervals... More about our weather records

Advertising

Kathua weather history for previous 24 hours

 ConditionsComfort  
Time TempWeatherWind HumidityBarometerVisibility
11:30 AM
Mon, Aug 3
90 °FFog.6 mph75%29.65 "Hg2 mi
11:00 AM88 °FFog.6 mph75%29.68 "Hg2 mi
10:00 AM86 °FFog.2 mph79%29.65 "Hg1 mi
9:30 AM86 °FFog.2 mph79%29.65 "Hg1 mi
8:30 AM82 °FFog.No wind89%29.65 "Hg1 mi
6:00 AM79 °FFog.No wind100%29.62 "Hg1 mi
5:30 AM79 °FFog.No wind100%29.62 "Hg1 mi
5:00 AM81 °FFog.No wind94%29.62 "Hg1 mi
4:30 AM81 °FFog.No wind94%29.62 "Hg1 mi
4:00 AM81 °FFog.No wind94%29.62 "Hg1 mi
3:30 AM81 °FFog.No wind94%29.65 "Hg1 mi
2:30 AM81 °FFog.3 mph94%29.62 "Hg1 mi
2:00 AM81 °FFog.6 mph94%29.65 "Hg1 mi
1:30 AM81 °FFog.6 mph94%29.65 "Hg1 mi
1:00 AM81 °FFog.6 mph94%29.65 "Hg1 mi
12:30 AM81 °FFog.6 mph94%29.68 "Hg1 mi
12:00 AM81 °FFog.6 mph94%29.68 "Hg1 mi
11:30 PM
Sun, Aug 2
81 °FFog.2 mph94%29.68 "Hg1 mi
11:00 PM81 °FThundershowers. Partly cloudy.No wind100%29.68 "Hg1 mi
10:30 PM82 °FThundershowers. Partly cloudy.No wind94%29.68 "Hg1 mi
10:00 PM81 °FThundershowers. Partly cloudy.No wind94%29.68 "Hg1 mi
9:30 PM82 °FThundershowers. Partly cloudy.No wind89%29.65 "Hg1 mi
9:00 PM82 °FFog.No wind89%29.65 "Hg1 mi
8:30 PM82 °FFog.No wind94%29.65 "Hg1 mi
8:00 PM82 °FLight rain. Mostly cloudy.3 mph94%29.65 "Hg1 mi
7:30 PM82 °FRain. Broken clouds.2 mph94%29.65 "Hg1 mi
7:00 PM84 °FFog.3 mph89%29.65 "Hg2 mi
6:30 PM86 °FFog.No wind84%29.65 "Hg2 mi
5:30 PM86 °FFog.7 mph79%29.62 "Hg2 mi
5:00 PM86 °FFog.8 mph84%29.62 "Hg2 mi
4:30 PM84 °FFog.7 mph84%29.62 "Hg2 mi
3:00 PM86 °FFog.7 mph84%29.65 "Hg2 mi
2:30 PM84 °FFog.10 mph84%29.65 "Hg2 mi
2:00 PM88 °FFog.6 mph84%29.65 "Hg2 mi
1:00 PM86 °FFog.7 mph79%29.68 "Hg2 mi
12:30 PM86 °FFog.7 mph79%29.68 "Hg2 mi
12:00 PM84 °FFog.No wind84%29.68 "Hg2 mi
Weather by CustomWeather, © 2015

See weather overviewHow to use our weather pages